Location: Be?i?
(36.9044°N, 30.1006°E)
Time: 13:12:30
(UTC+00:00)

COSMOS 2406 - Pass Details

Date: 05 August 2024
Orbit: 846 x 859 km, 71.0° (Epoch: 09 September)

Event Time Altitude Azimuth Distance (km) Brightness Sun altitude
Rises 17:47:45 0° 332° (NNW) 3,413 7.4 -9.1°
Reaches altitude 10° 17:50:15 10° 327° (NNW) 2,475 6.7 -9.5°
Maximum altitude 17:55:42 50° 254° (WSW) 1,077 4.1 -10.5°
Drops below altitude 10° 18:01:09 10° 180° (S) 2,467 5.3 -11.4°
Sets 18:03:39 0° 175° (S) 3,400 6.0 -11.8°
